Find Starlink 11352

NORAD ID: 62880 Int'l Des: 2025-024 Owner: SPXS Country: US Constellation: starlink operational
LEOCIRCULAR

Live-Position

3D-Globus wird geladen...

Über Starlink 11352

Beschreibung wird geladen...

Nächste Überflüge

Passes for default location (London). Set your location on the main map for personalized predictions.

Höhenverlauf

Loading altitude history...

Zweizeiliger Elementsatz

1 62880U 25024B 26127.21473939 .00138556 00000-0 10617-2 0 9998
2 62880 43.0031 188.4575 0002198 272.4463 87.6153 15.70922193 72674
Epoch: 7. Mai 2026 • Age: 8 hours

Aktueller Status

Höhe 357.7 km
Geschwindigkeit 7.70 km/s
Subsatellitenpunkt -12.88°S, 116.54°E
Startdatum 4. Feb. 2025
Alter 1.2 years
Typ internet

Technische Details

Klassifizierung Payload
Masse 960.00 kg
Trockenmasse 910.00 kg
Gesamtmasse 960.00 kg
Länge 0.30 m
Durchmesser 4.10 m
Spannweite 29.00 m
Form Box + pan
Hersteller SPXS
Bus-Typ Starlink V2MD
Phasenstatus In Orbit
Besitzer/Staat SPXS/US

Most Searched